DateTimeUTC,F1_A11,F1_S11,BsB_S11,BsG_S11,BsR_S11,BbsB_S11,BbsG_S11,BbsR_S11,BaB_A11,BaG_A11,BaR_A11,Tu_S11,T_S11,Uu_S11,U_S11,P_S11,T1_A11
2021-05-07T18:00:00Z,00000200,20000000,,,,,,,0000.25,0000.06,-000.12,19.8,26.5,01.5,01.0,0673.9,31.2
2021-05-07T18:01:00Z,00000200,20000000,,,,,,,0000.11,0000.39,0000.17,19.8,26.5,01.5,01.0,0673.9,31.2
2021-05-07T18:02:00Z,00000200,20000000,,,,,,,0000.13,0000.11,0000.11,19.8,26.5,01.5,01.0,0673.9,31.2
2021-05-07T18:03:00Z,00000200,60000000,,,,,,,0000.55,0000.50,0000.41,19.8,26.6,01.5,01.0,0673.9,31.2
2021-05-07T18:04:00Z,00000200,40000000,0000.09,0000.60,0000.16,0000.00,-000.01,0000.30,0000.70,0000.60,0000.62,19.9,26.4,01.8,01.2,0674.8,31.2
2021-05-07T18:05:00Z,00000200,00000000,0000.60,0000.37,0000.01,0000.19,0000.25,0000.55,0000.72,0000.22,0000.69,20.0,26.4,02.0,01.3,0674.9,31.2
2021-05-07T18:06:00Z,00000200,01000000,0000.08,0000.13,0000.34,-000.11,0000.06,-000.04,0000.70,0000.92,0000.35,20.0,26.4,01.9,01.3,0674.9,31.2
2021-05-07T18:07:00Z,00000200,00000000,0000.73,0000.38,0000.30,0000.45,-000.01,0000.03,0000.43,0000.37,0000.17,20.0,26.3,01.9,01.3,0674.9,31.2
2021-05-07T18:08:00Z,00000200,00000000,0000.78,0000.31,0000.04,0000.23,0000.06,-000.02,0000.20,0000.46,0000.25,20.0,26.3,01.9,01.3,0674.9,31.2
2021-05-07T18:09:00Z,00000200,00000000,0000.33,0000.43,0000.26,-000.10,-000.14,0000.04,0000.53,0000.29,0000.55,20.0,26.3,01.9,01.3,0674.9,31.2
2021-05-07T18:10:00Z,00000200,01000000,-000.14,0000.21,0000.21,0000.22,0000.32,-000.02,0001.09,0000.66,0000.24,20.0,26.3,02.0,01.3,0674.9,31.2
2021-05-07T18:11:00Z,00000200,00000000,0000.30,0000.44,0000.43,-000.10,-000.05,0000.04,0000.30,0000.57,0000.24,20.0,26.3,02.0,01.4,0674.9,31.2
2021-05-07T18:12:00Z,00000200,00000000,0000.43,0000.31,0000.27,0000.11,0000.22,-000.06,0000.65,0000.28,0000.30,20.0,26.3,01.9,01.3,0674.9,31.2
2021-05-07T18:13:00Z,00000200,00000000,-000.11,0000.18,0000.10,0000.01,0000.22,0000.20,0000.40,0000.64,0000.50,20.0,26.3,02.0,01.3,0674.9,31.2
2021-05-07T18:14:00Z,00000200,00000000,0000.87,0000.42,0000.11,0000.26,-000.09,0000.18,0000.32,0000.47,0000.14,19.9,26.3,02.1,01.5,0674.9,31.2
2021-05-07T18:15:00Z,00000200,00000000,0000.31,0000.45,0000.37,0000.27,-000.02,0000.11,0000.52,0000.00,0000.41,19.9,26.3,02.0,01.4,0674.9,31.2
2021-05-07T18:16:00Z,00000200,00000000,0000.29,0000.53,-000.15,0000.37,0000.01,0000.33,0000.62,0000.87,0000.27,19.9,26.3,02.0,01.4,0674.9,31.2
2021-05-07T18:17:00Z,00000200,01000000,0000.21,0000.14,-000.18,0000.13,0000.26,-000.17,0000.12,0000.19,0000.26,19.9,26.3,02.1,01.4,0674.9,31.2
2021-05-07T18:18:00Z,00000200,00000000,0000.41,-000.09,0000.29,0000.25,0000.15,0000.08,0000.45,0000.11,0000.38,19.9,26.3,02.1,01.4,0674.9,31.1
2021-05-07T18:19:00Z,00000200,00000000,0000.79,0000.70,-000.15,0000.32,0000.20,0000.16,0000.20,0000.27,0000.34,19.9,26.3,02.0,01.4,0674.9,31.1
2021-05-07T18:20:00Z,00000200,00000000,0000.65,0000.62,0000.44,0000.04,0000.07,0000.09,0000.72,0000.44,-000.06,19.9,26.3,02.0,01.4,0674.9,31.2
2021-05-07T18:21:00Z,00000200,00000000,0000.58,0000.28,0000.29,0000.20,0000.15,0000.28,0000.24,0000.54,0000.40,19.9,26.3,02.0,01.4,0674.9,31.1
2021-05-07T18:22:00Z,00000200,00000000,0000.21,0000.41,0000.06,0000.31,-000.01,0000.11,0000.09,0000.18,-000.23,19.9,26.3,02.0,01.4,0674.9,31.2
2021-05-07T18:23:00Z,00000200,00000000,0000.51,0000.40,0000.38,-000.23,0000.25,-000.05,0001.15,0000.75,0001.10,19.9,26.3,02.0,01.4,0674.9,31.2
2021-05-07T18:24:00Z,00000200,00000000,0000.62,0000.36,0000.25,0000.52,0000.08,0000.19,0000.56,0000.66,-000.01,19.9,26.3,02.0,01.4,0674.9,31.1
2021-05-07T18:25:00Z,00000200,01000000,0000.35,0000.13,0000.48,-000.25,0000.25,0000.12,0000.84,0000.87,0000.87,19.9,26.3,01.9,01.3,0674.9,31.2
2021-05-07T18:26:00Z,00000200,00000000,0000.53,0000.29,0000.39,-000.05,0000.27,0000.01,0000.93,0001.03,0000.92,19.9,26.3,01.9,01.3,0675.0,31.2
2021-05-07T18:27:00Z,00000200,01000000,0000.56,0000.53,0000.29,-000.02,0000.14,-000.10,0002.55,0002.18,0001.80,19.9,26.3,01.9,01.3,0674.9,31.2
2021-05-07T18:28:00Z,00000200,01000000,0001.00,0000.55,0000.51,0000.42,0000.01,0000.21,0002.54,0001.68,0001.03,19.9,26.3,01.8,01.2,0675.0,31.2
2021-05-07T18:29:00Z,00000200,01000000,0001.34,0000.74,0000.59,0000.15,0000.23,0000.14,0001.21,0001.51,0001.32,19.9,26.3,01.8,01.2,0675.0,31.1
2021-05-07T18:30:00Z,00000200,01000000,0001.39,0001.24,0000.53,0000.27,0000.44,-000.19,0002.97,0002.59,0001.92,19.9,26.3,01.6,01.1,0675.0,31.2
2021-05-07T18:31:00Z,00000200,01000000,0001.48,0000.63,0000.35,0000.46,0000.12,0000.06,0003.21,0003.05,0002.14,19.9,26.3,01.8,01.2,0675.0,31.2
2021-05-07T18:32:00Z,00000200,01000000,0000.79,0000.65,0000.55,0000.36,0000.31,0000.09,0002.96,0002.31,0002.02,19.9,26.3,01.9,01.3,0675.0,31.2
2021-05-07T18:33:00Z,00000200,01000000,0001.29,0000.72,0000.49,0000.32,0000.27,0000.23,0002.41,0002.43,0001.77,19.9,26.3,01.7,01.2,0675.0,31.1
2021-05-07T18:34:00Z,00000200,01000000,0001.43,0000.80,0000.88,0000.73,0000.35,0000.14,0002.13,0001.64,0001.47,19.9,26.3,01.8,01.2,0675.0,31.2
2021-05-07T18:35:00Z,00000200,01000000,0000.90,0000.75,0000.60,0000.28,0000.30,0000.11,0002.20,0002.16,0001.43,19.9,26.3,01.5,01.0,0675.0,31.2
2021-05-07T18:36:00Z,00000200,01000000,0001.61,0000.90,0000.51,-000.19,0000.22,0000.32,0002.76,0002.68,0002.07,19.9,26.3,01.4,00.9,0675.0,31.2
2021-05-07T18:37:00Z,00000200,01000000,0001.25,0000.88,0000.73,0000.11,0000.23,-000.04,0002.16,0001.96,0001.53,19.9,26.3,01.4,01.0,0675.0,31.2
2021-05-07T18:38:00Z,00000200,01000000,0001.18,0000.73,0000.70,0000.31,0000.52,0000.24,0003.02,0002.52,0001.96,19.9,26.3,01.4,01.0,0675.0,31.2
2021-05-07T18:39:00Z,00000200,01000000,0001.96,0001.26,0001.06,0000.13,0000.40,0000.27,0002.24,0002.11,0001.41,19.9,26.3,01.6,01.1,0675.0,31.2
2021-05-07T18:40:00Z,00000200,01000000,0001.26,0001.01,0000.88,0000.05,0000.07,0000.25,0002.32,0001.87,0001.68,19.9,26.3,01.7,01.1,0675.0,31.2
2021-05-07T18:41:00Z,00000200,01000000,0000.92,0000.86,0000.26,0000.19,0000.18,0000.02,0002.67,0002.29,0001.68,19.9,26.3,01.7,01.1,0675.0,31.2
2021-05-07T18:42:00Z,00000200,01000000,0001.61,0000.89,0000.50,0000.09,0000.18,-000.33,0001.24,0001.55,0000.86,19.9,26.3,01.7,01.2,0675.0,31.2
2021-05-07T18:43:00Z,00000200,01000000,0001.38,0000.99,0000.53,0000.73,0000.09,0000.00,0002.35,0001.74,0001.59,19.9,26.3,01.6,01.1,0675.0,31.2
2021-05-07T18:44:00Z,00000200,01000000,0000.78,0000.83,0000.23,0000.16,0000.30,-000.05,0002.17,0002.02,0001.54,19.9,26.3,01.6,01.1,0675.0,31.2
2021-05-07T18:45:00Z,00000200,01000000,0001.12,0000.91,0000.80,0000.40,0000.26,-000.05,0002.49,0002.42,0001.65,19.9,26.3,01.8,01.2,0675.0,31.2
2021-05-07T18:46:00Z,00000200,01000000,0001.39,0001.46,0000.53,0000.43,0000.38,-000.16,0001.38,0001.26,0001.21,19.9,26.3,01.7,01.1,0675.0,31.2
2021-05-07T18:47:00Z,00000200,01000000,0001.29,0001.02,0000.80,-000.16,0000.35,0000.31,0003.02,0002.26,0001.73,19.9,26.3,01.4,01.0,0675.0,31.2
2021-05-07T18:48:00Z,00000200,01000000,0001.29,0001.12,0000.65,0000.64,0000.13,-000.04,0001.90,0002.20,0001.30,19.9,26.3,01.6,01.1,0675.0,31.2
2021-05-07T18:49:00Z,00000200,01000000,0001.34,0001.27,0000.96,0000.79,0000.14,0000.25,0001.47,0001.01,0001.12,19.9,26.3,01.5,01.0,0675.0,31.2
2021-05-07T18:50:00Z,00000200,01000000,0001.46,0000.92,0000.79,0000.34,0000.20,0000.33,0002.36,0002.48,0001.76,19.9,26.3,01.3,00.9,0675.0,31.2
2021-05-07T18:51:00Z,00000200,01000000,0001.46,0001.09,0000.69,0001.14,0000.25,0000.03,0001.59,0001.25,0001.11,19.9,26.3,01.4,00.9,0675.0,31.2
2021-05-07T18:52:00Z,00000200,01000000,0002.49,0000.95,0000.50,0000.15,0000.18,0000.17,0001.73,0001.64,0000.93,19.9,26.3,01.5,01.0,0675.0,31.2
2021-05-07T18:53:00Z,00000200,01000000,0001.34,0000.95,0000.66,-000.07,0000.18,0000.18,0002.23,0002.04,0001.86,19.8,26.3,01.5,01.0,0675.0,31.2
2021-05-07T18:54:00Z,00000200,01000000,0001.56,0001.17,0000.37,-000.26,0000.22,0000.27,0002.37,0001.96,0001.50,19.9,26.3,01.4,01.0,0675.0,31.2
2021-05-07T18:55:00Z,00000200,01000000,0001.18,0000.83,0000.41,0000.10,0000.05,-000.09,0002.33,0002.40,0001.78,19.9,26.3,01.5,01.0,0675.0,31.2
2021-05-07T18:56:00Z,00000200,01000000,0002.27,0001.23,0000.79,0000.55,0000.43,0000.34,0002.77,0002.39,0001.54,19.8,26.3,01.6,01.0,0675.0,31.2
2021-05-07T18:57:00Z,00000200,40000000,,,,,,,0000.71,0000.80,0000.54,19.8,26.4,01.5,01.0,0675.0,31.2
2021-05-07T18:58:00Z,00000200,60000000,,,,,,,0000.27,0000.17,0000.29,19.6,26.5,01.5,01.0,0674.0,31.2
2021-05-07T18:59:00Z,00000200,20000000,,,,,,,-000.24,-000.42,-000.38,19.6,26.6,01.5,01.0,0674.0,31.2
